User: anonymous   Login
Location: Unspecified
(0.0000°N, 0.0000°E)
Time: 10:36:39
(UTC+00:00)
Language:

FO-29 - Orbit

View from above orbital plane
View from above orbital plane
View from above satellite
View from above satellite

Ground track
Ground track

The orbit data is extracted from the following two-line orbital elements,

1 24278U 96046B   19295.91987509 -.00000014 +00000-0 +25223-4 0  9996
2 24278 098.5570 072.3164 0349289 272.7842 083.3377 13.53094254144623
Epoch (UTC): 22 October 2019 22:04:37
Eccentricity: 0.0349289
inclination: 98.5570°
perigee height: 801 km
apogee height: 1321 km
right ascension of ascending node: 72.3164°
argument of perigee: 272.7842°
revolutions per day: 13.53094254
mean anomaly at epoch: 83.3377°
orbit number at epoch: 14462

The dashed part of the orbit path shows where the satellite is in the earth's shadow,  

DLR